Home > Time Zones > World Clock > Weather > Qatar > Doha > Past weeks

Flag for Qatar Weather past 2 weeks in Doha, Qatar

Now
90 °F

Haze.


Feels Like: 103 °F
Forecast: 88 / 109 °F
Wind: 5 mph from Southwest

Location: Doha International Airport

Current Time: Aug 28, 2015 at 6:27:31 AM

Latest Report: Aug 28, 2015 at 6:00 AM


Visibility: 2 mi

Pressure: 29.56 "Hg

Humidity: 67%

Dew point: 77 °F

Historic Weather in Doha — Graph

°F

Doha temperature yesterday

Maximum temperature yesterday: 104 °F (at 10:00 AM)
Minimum temperature yesterday: 90 °F (at 4:00 AM)
Average temperature yesterday: 97 °F

Past Weeks' High & Low Weather Summary

 TemperatureHumidityPressure
High117 °F (Aug 25, 12:00 PM)84% (Aug 13, 5:00 AM)29.65 "Hg (Aug 13, 5:00 AM)
Low90 °F (Aug 13, 5:00 AM)15% (Aug 16, 11:00 AM)29.50 "Hg (Aug 14, 5:00 PM)
Average98 °F59%29.55 "Hg
* Reported Aug 13 5:00 AM — Aug 28 5:00 AM, Doha, Weather by CustomWeather, © 2015

Note: Actual official high and low records may vary slightly from our data, if they occured in-between our weather recording intervals... More about our weather records

Advertising

Doha weather history for previous 24 hours

 ConditionsComfort  
Time TempWeatherWind HumidityBarometerVisibility
5:00 AM
Fri, Aug 28
90 °FHaze.5 mph67%29.56 "Hg3 mi
4:00 AM91 °FHaze.3 mph63%29.53 "Hg3 mi
3:00 AM91 °FClear.5 mph67%29.53 "Hg4 mi
2:00 AM93 °FClear.5 mph63%29.53 "Hg5 mi
1:00 AM93 °FClear.5 mph63%29.53 "Hg5 mi
12:00 AM95 °FClear.5 mph60%29.56 "Hg5 mi
11:00 PM
Thu, Aug 27
95 °FClear.6 mph67%29.56 "Hg5 mi
10:00 PM95 °FClear.5 mph67%29.59 "Hg4 mi
9:00 PM95 °FClear.8 mph67%29.59 "Hg4 mi
8:00 PM95 °FClear.9 mph67%29.56 "Hg4 mi
7:00 PM97 °FClear.12 mph60%29.56 "Hg4 mi
6:00 PM97 °FDuststorm.12 mph63%29.53 "Hg3 mi
5:00 PM99 °FClear.12 mph60%29.53 "Hg4 mi
4:00 PM100 °FClear.13 mph53%29.53 "Hg4 mi
3:00 PM102 °FClear.12 mph48%29.53 "Hg5 mi
2:00 PM104 °FClear.12 mph43%29.56 "Hg4 mi
1:00 PM104 °FClear.12 mph43%29.56 "Hg4 mi
12:00 PM104 °FClear.10 mph43%29.59 "Hg4 mi
11:00 AM102 °FClear.9 mph51%29.62 "Hg4 mi
10:00 AM104 °FClear.2 mph40%29.62 "Hg5 mi
9:00 AM102 °FClear.3 mph45%29.59 "Hg5 mi
8:00 AM97 °FClear.7 mph56%29.59 "Hg4 mi
7:00 AM93 °FClear.7 mph67%29.59 "Hg4 mi
6:00 AM91 °FClear.7 mph75%29.56 "Hg4 mi
Weather by CustomWeather, © 2015

See weather overviewHow to use our weather pages